Regional Weather Roundup
Issued by NWS Goodland, KS

Home | Current Version | Previous Version | Graphics & Text | Print | Product List | Glossary On
Versions: 1 2 3 4 5 6 7 8 9 10 11 12 13 14 15 16 17 18 19 20 21 22 23 24 25 26 27 28 29 30 31 32 33 34 35 36 37 38 39 40 41 42 43 44 45 46 47 48 49 50
704
ASUS43 KGLD 030859
RWRGLD

GOODLAND FORECAST AREA HOURLY WEATHER ROUNDUP
NATIONAL WEATHER SERVICE GOODLAND KS
200 AM MST SAT DEC 03 2016

...OFFICIAL OBSERVATIONS...

CITY           SKY/WX    TMP DP  RH WIND       PRES   REMARKS
GOODLAND KS    CLOUDY    30  20  66 S8        30.20
HILL CITY KS   CLOUDY    29  24  82 CALM      30.27
IMPERIAL NEB   NOT AVBL
MCCOOK NEB     NOT AVBL
AKRON CO       NOT AVBL
BURLINGTON CO  NOT AVBL
LIMON CO       NOT AVBL
$$

...UNOFFICIAL OBSERVATIONS...

CITY           SKY/WX    TMP DP  RH WIND       PRES   REMARKS
COLBY KS       CLOUDY    32  23  69 S3        30.24F
LENORA KS        N/A     29  32 100 MISG        N/A
NORTON KS      CLEAR     28  21  74 CALM      30.25F
SHARON SPRINGS   N/A     31  19  60 CALM        N/A
TRENTON NEB      N/A     31  32 100 CALM        N/A
KIT CARSON CO    N/A     25  22  88 CALM        N/A
YUMA CO        CLOUDY    27  21  80 S12       30.17F WCI  16
$$




USA.gov is the U.S. government's official web portal to all federal, state and local government web resources and services.